This demonstration page uses our WeatherBlox Daily Observations layout. Learn more.

Left ArrowRight Arrow

Hourly Observations for December 28, 2019

Temp ( °F °C ) Dew Point ( °F °C ) Humidity (%) Winds ( mph kmh ) Pressure ( in mb ) Visibility ( mi km ) Precip ( " mm )
12:52 am 00:52 Cloudy with Light Rain 37 2.8 34 1.1 89 89 ESE 5 7 29.99 1016 3 5 0.19 4.83
1:43 am 01:43 Cloudy with Rain 36 2.2 35 1.7 97 97 NW 5 7 30.01 1016 3 4 0.17 4.32
1:52 am 01:52 Cloudy with Rain 36 2.2 35 1.7 97 97 N 3 6 29.99 1016 3 4 0.21 5.33
2:09 am 02:09 Cloudy with Rain 36 2.2 35 1.7 97 97 NNE 5 7 30.00 1016 3 5 0.07 1.78
2:52 am 02:52 Cloudy with Light Rain 36 2.2 35 1.7 97 97 E 7 11 29.96 1015 5 8 0.16 4.06
3:25 am 03:25 Cloudy with Rain 37 2.8 35 1.7 93 93 ESE 5 7 29.97 1015 4 6 0.06 1.52
3:52 am 03:52 Cloudy with Light Rain 37 2.8 35 1.7 93 93 ESE 7 11 29.94 1014 4 6 0.14 3.56
4:44 am 04:44 Cloudy with Rain 37 2.8 36 2.2 96 96 SE 12 19 29.93 1014 3 4 0.20 5.08
4:52 am 04:52 Cloudy with Rain 37 2.8 36 2.2 96 96 SE 10 17 29.91 1013 3 5 0.22 5.59
5:03 am 05:03 Cloudy with Light Rain 38 3.3 36 2.2 93 93 SE 14 22 29.92 1013 3 4 0.04 1.02
5:52 am 05:52 Cloudy with Light Rain 38 3.3 37 2.8 97 97 SE 3 6 29.90 1012 2 3 0.17 4.32
6:47 am 06:47 Cloudy with Light Rain 37 3 37 3 100 100 ESE 5 7 29.90 1013 3 5 0.07 1.78
6:52 am 06:52 Cloudy with Light Rain 38 3.3 37 2.8 97 97 Calm 29.88 1012 3 5 0.07 1.78
7:37 am 07:37 Cloudy with Light Rain 38 3.3 38 3.3 100 100 Calm 29.89 1012 2 3 0.03 0.76
7:47 am 07:47 Cloudy with Light Rain 37 3 37 3 100 100 Calm 29.89 1012 2 3 0.04 1.02
7:52 am 07:52 Cloudy with Light Rain 38 3.3 38 3.3 100 100 Calm 29.86 1011 2 3 0.04 1.02
8:52 am 08:52 Cloudy with Light Rain 37 2.8 37 2.8 100 100 NW 7 11 29.86 1011 1 2 0.04 1.02
9:52 am 09:52 Cloudy with Light Rain 38 3.3 37 2.8 97 97 NE 6 9 29.84 1011 1 2 0.05 1.27
10:28 am 10:28 Cloudy with Rain 39 3.9 38 3.3 96 96 NE 6 9 29.85 1011 2 3 0.04 1.02
10:52 am 10:52 Cloudy with Rain 39 3.9 38 3.3 96 96 NNE 3 6 29.82 1010 2 3 0.13 3.30
11:52 am 11:52 Cloudy with Light Rain 39 3.9 39 3.9 100 100 E 7 11 29.78 1008 3 5 0.22 5.59
12:37 pm 12:37 Cloudy with Light Rain 41 5 40 4.4 96 96 Calm 29.75 1007 6 10 0.02 0.51
12:52 pm 12:52 Cloudy with Light Rain 41 5 40 4.4 96 96 E 7 11 29.71 1006 10 16 0.02 0.51
1:34 pm 13:34 Cloudy 42 5.6 41 5 96 96 E 5 7 29.70 1006 10 16 0.01 0.25
1:52 pm 13:52 Cloudy 42 5.6 41 5 96 96 E 7 11 29.67 1005 10 16 0.01 0.25
2:00 pm 14:00 Cloudy 42 5.6 41 5 96 96 E 5 7 29.68 1005 10 16 0.00 0.00
2:52 pm 14:52 Cloudy with Mist and Fog 43 6.1 42 5.6 97 97 Calm 29.65 1004 6 10 0.00 0.00
3:01 pm 15:01 Cloudy with Light Rain 42 5.6 41 5 96 96 NW 3 6 29.66 1004 6 10 0.00 0.00
3:17 pm 15:17 Cloudy with Light Rain 42 5.6 42 5.6 100 100 NNW 3 6 29.65 1004 2 3 0.02 0.51
3:52 pm 15:52 Cloudy with Light Rain 42 5.6 41 5 96 96 NNW 9 15 29.64 1004 2 2 0.04 1.02
4:27 pm 16:27 Cloudy with Light Rain 41 5 41 5 100 100 N 12 19 29.65 1004 2 3 0.01 0.25
4:52 pm 16:52 Cloudy with Light Rain 41 5 41 5 100 100 N 13 20 29.61 1003 2 3 0.02 0.51
5:52 pm 17:52 Cloudy with Light Rain 41 5 40 4.4 96 96 N 14 22 29.62 1003 3 5 0.02 0.51
6:52 pm 18:52 Cloudy with Mist and Fog 40 4.4 40 4.4 100 100 NNW 12 19 29.60 1002 4 6 0.01 0.25
7:52 pm 19:52 Cloudy with Light Rain 40 4.4 39 3.9 97 97 N 12 19 29.55 1001 4 6 0.01 0.25
8:52 pm 20:52 Cloudy with Mist and Fog 40 4.4 40 4.4 100 100 NNW 6 9 29.54 1000 3 5 0.00 0.00
9:52 pm 21:52 Cloudy with Mist and Fog 40 4.4 39 3.9 97 97 N 8 13 29.50 999 3 5 0.00 0.00
10:19 pm 22:19 Cloudy with Mist and Fog 39 3.9 39 3.9 100 100 NNW 10 17 29.52 1000 1 2 0.00 0.00
10:52 pm 22:52 Mostly Cloudy with Mist and Fog 39 3.9 39 3.9 100 100 N 8 13 29.48 998 1 2 0.00 0.00
11:38 pm 23:38 Cloudy with Mist and Fog 39 3.9 38 3.3 96 96 NNW 9 15 29.50 999 1 1 0.00 0.00
11:52 pm 23:52 Cloudy with Mist and Fog 39 3.9 38 3.3 96 96 N 8 13 29.47 998 1 2 0.00 0.00

Powered by AerisWeather